Погода в Усухчае

Россия / Республика Дагестан     41°25′28″N   47°55′20″E
темп.,
°C
ветер,
м/с
пор.,
м/с
влажн.,
%
обл.,
%
осадки,
мм/ч
давл.,
гПа
погр.,
м
25 июня, сб
сб2500:00+15зюз457672 0.4 101088
03:00+13зюз447287 0.4 101039
06:00+17зюз23684 0.0 101077
09:00+20всв32650 0.0 1009518
12:00+22всв43641 0.4 1009858
15:00+22всв536669 1.1 1008856
18:00+17всв328865 0.4 1009291
21:00+15зсз0191100 0.6 101164
26 июня, вс
вс2600:00+15зюз2286100 0.1 101026
03:00+15юз1175100 0.2 101014
06:00+16юз1173100 0.0 101077
09:00+21всв2163100 0.0 1008574
12:00+20св227090 1.1 1008504
15:00+21св536679 2.0 1007786
18:00+19св2280100 0.6 1007199
21:00+15зюз328739 1.5 101029
27 июня, пн
пн2700:00+14зюз33770 0.1 101032
03:00+14зюз45710 0.1 101046
06:00+17зюз34690 0.0 101086
09:00+23св32520 0.0 1009740
12:00+24всв43532 0.1 10091257
15:00+24св435544 0.1 10091413
18:00+21в337125 0.1 1010360
21:00+17зюз44800 0.1 101150
28 июня, вт
вт2800:00+17зюз45640 0.0 101065
03:00+16зюз34614 0.0 100937
06:00+18з23640 0.0 100991
09:00+22всв32550 0.0 1008708
12:00+24всв43502 0.1 10081210
15:00+23всв53523 0.1 10091321
18:00+19всв32731 0.0 1011448
21:00+14з11910 0.0 101311
29 июня, ср
ср2900:00+14зюз33899 0.3 101331
03:00+14юз228717 0.7 101322
06:00+16всв118024 0.0 1014167
09:00+20всв335716 0.1 1013950
12:00+22всв324568 0.0 10131539
15:00+21св434714 0.1 10131346
18:00+18св33600 0.0 1014491
21:00+12юз22800 0.0 101612